Banff, Alberta

7:13 AM MDT on June 27, 2017 (GMT -0600)
Banff

Weather History for CWZG - June, 2013

Change the Weather History Date:

Sunday, June 16, 2013

  Actual Average Record
Temperature  
Mean Temperature 50 °F -  
Max Temperature 68 °F - - ()
Min Temperature 31 °F - - ()
Degree Days  
Heating Degree Days 16    
Moisture  
Dew Point 36 °F    
Average Humidity 59    
Maximum Humidity 100    
Minimum Humidity 21    
Precipitation  
Precipitation 0.00 in - - ()
Sea Level Pressure  
Sea Level Pressure 30.12 in    
Wind  
Wind Speed 3 mph ()    
Max Wind Speed 9 mph    
Max Gust Speed -    
T = Trace of Precipitation, MM = Missing Value Source: Averaged Metar Reports

Daily Weather History Graph

Daily Weather History Graph

Search for Another Location

Airport or City:

Trip Planner

Search our weather history database for the weather conditions in past years. The results will help you decide how hot, cold, wet, or windy it might be!

Date:

Astronomy

Jun. 16, 2013 Rise Set
Actual Time 5:26 AM MDT 10:00 PM MDT
Civil Twilight 4:39 AM MDT 10:47 PM MDT
Nautical Twilight 3:27 AM MDT 11:59 PM MDT
Astronomical Twilight 2:15 AM MDT 1:10 AM MDT
Moon 1:57 PM MDT (6/16) 1:19 AM MDT (6/16)
Length of Visible Light 18h 08m
Length of Day
16h 34m
Waxing Crescent, 50% of the Moon is Illuminated
Jun 16
Waxing Crescent
Jun 23
Full
Jun 29
Last Quarter
Jul 8
New
Jul 15
First Quarter

Hourly Weather History & Observations

Time (MDT) Temp. Windchill Dew Point Humidity Pressure Visibility Wind Dir Wind Speed Gust Speed Precip Events Conditions
12:00 AM 46.8 °F - 38.1 °F 72% 30.08 in - NNE 3.5 mph - N/A   Unknown
1:00 AM 42.4 °F - 36.5 °F 79% 30.10 in - NE 2.3 mph - N/A   Unknown
2:00 AM 40.5 °F - 36.0 °F 84% 30.12 in - NE 2.3 mph - N/A   Unknown
3:00 AM 37.4 °F - 35.4 °F 93% 30.13 in - Calm Calm - N/A   Unknown
4:00 AM 36.3 °F - 35.2 °F 96% 30.15 in - SSW 1.2 mph - N/A   Unknown
5:00 AM 33.8 °F - 33.3 °F 98% 30.17 in - Calm Calm - N/A   Unknown
6:00 AM 31.5 °F - 31.8 °F 100% 30.18 in - North 1.2 mph - N/A   Unknown
7:00 AM 37.8 °F - 35.1 °F 90% 30.18 in - Calm Calm - N/A   Unknown
8:00 AM 44.8 °F 43.3 °F 36.5 °F 73% 30.17 in - WSW 3.5 mph - N/A   Unknown
9:00 AM 49.5 °F - 36.7 °F 61% 30.18 in - South 1.2 mph - N/A   Unknown
10:00 AM 54.1 °F - 36.1 °F 51% 30.15 in - NW 2.3 mph - N/A   Unknown
11:00 AM 60.1 °F - 33.6 °F 37% 30.13 in - North 3.5 mph - N/A   Unknown
12:00 PM 63.0 °F - 33.1 °F 33% 30.13 in - North 6.9 mph - N/A   Unknown
1:00 PM 64.0 °F - 31.8 °F 30% 30.12 in - NNE 3.5 mph - N/A   Unknown
2:00 PM 66.6 °F - 30.6 °F 26% 30.11 in - South 3.5 mph - N/A   Unknown
3:00 PM 66.0 °F - 33.6 °F 30% 30.10 in - NNW 3.5 mph - N/A   Unknown
4:00 PM 66.0 °F - 29.1 °F 25% 30.10 in - NNW 3.5 mph - N/A   Unknown
5:00 PM 68.9 °F - 27.1 °F 21% 30.09 in - NNW 2.3 mph - N/A   Unknown
6:00 PM 66.7 °F - 33.4 °F 29% 30.09 in - East 4.6 mph - N/A   Unknown
7:00 PM 63.7 °F - 38.8 °F 40% 30.09 in - ENE 5.8 mph - N/A   Unknown
8:00 PM 61.0 °F - 43.0 °F 52% 30.10 in - NE 8.1 mph - N/A   Unknown
9:00 PM 59.0 °F - 43.9 °F 57% 30.10 in - NE 8.1 mph - N/A   Unknown
10:00 PM 57.2 °F - 44.1 °F 62% 30.10 in - NNE 8.1 mph - N/A   Unknown
11:00 PM 55.6 °F - 44.4 °F 66% 30.11 in - NNE 9.2 mph - N/A   Unknown